Lafayette Regional Airport Lafayette US
ICAO: KLFT
IATA: LFT
Category: Large
Scheduled Services: Yes

Elevation: 42 ft
TransAlt. 18000 ft.

Airport Communications:
APP/DEP:121.1
ATIS:134.05
CLNC DEL:125.55
CTAF:118.5
GND:121.8
DE RIDDER RDO:122.35
TWR:118.5
UNICOM:122.95

KLFT Zoom In..

If Map Doesn't Load, Click Here

Runways:

(A) RW 04L length 4099 ft width 75 ft
---- / hdg 36

(B) RW 04R length 8001 ft width 150 ft
ILS 110.90 / hdg 36

(C) RW 11 length 5401 ft width 148 ft
---- / hdg 107

(D) RW 22L length 8001 ft width 150 ft
ILS 109.50 / hdg 216

(E) RW 22R length 4099 ft width 75 ft
---- / hdg 216

(F) RW 29 length 5401 ft width 148 ft
---- / hdg 287

Location; KLFT
Day. 24 / Time. 05.28 Zulu
* Altimeter: 29.92
* Temperature: 25° c. 77°f.
* Wind from: 000° Speed 00 kn.
Dewpoint: 24° c.
Visibility: 10 Statute Miles.
Clouds: Scattered 200 ft.

KLFT 240528Z AUTO 00000KT 10SM SCT002 25/24 A2992 RMK AO2 T02500244 $


Wind - Calm.

 
 
jpsmedia.com for Web Design worldairports.se 2018   terms of use